Total_Precipitation_Accumulation
0.00 0.00 0.01 0.02 0.10 0.23 0.39 0.39 0.45 0.57 0.60 0.53 0.51 0.57 0.69 0.74 0.92 1.67 1.06 0.49 0.34 0.30 0.34 0.40 0.36 0.35 0.36 0.36 0.40 0.42 0.45 0.45 0.47 0.47 0.50 0.47 0.47 0.47 0.50 0.56 0.73 0.77 0.75 0.66 0.60 0.60 0.57 0.53 0.52
0.01 0.01 0.02 0.04 0.14 0.37 0.44 0.40 0.46 0.55 0.50 0.43 0.48 0.55 0.53 0.53 0.50 0.54 0.63 0.44 0.32 0.30 0.36 0.38 0.34 0.35 0.35 0.32 0.34 0.40 0.45 0.47 0.47 0.44 0.51 0.52 0.52 0.55 0.54 0.57 0.73 0.93 0.95 0.92 0.76 0.68 0.64 0.59 0.55
0.01 0.02 0.03 0.04 0.15 0.39 0.50 0.44 0.48 0.47 0.41 0.46 0.53 0.58 0.61 0.61 0.54 0.51 0.51 0.33 0.33 0.33 0.39 0.43 0.33 0.31 0.30 0.31 0.36 0.44 0.49 0.55 0.51 0.49 0.50 0.52 0.56 0.60 0.57 0.59 0.67 0.87 0.96 0.95 0.87 0.82 0.78 0.70 0.62
0.02 0.03 0.03 0.07 0.18 0.30 0.39 0.42 0.52 0.57 0.50 0.51 0.50 0.65 0.72 0.62 0.60 0.55 0.49 0.42 0.36 0.38 0.40 0.34 0.29 0.28 0.31 0.35 0.37 0.41 0.58 0.62 0.54 0.52 0.53 0.52 0.54 0.56 0.59 0.66 0.69 0.71 0.77 0.84 0.89 0.92 0.88 0.76 0.66
0.03 0.03 0.05 0.09 0.18 0.25 0.38 0.46 0.61 0.67 0.54 0.48 0.50 0.79 0.94 0.87 0.78 0.74 0.63 0.57 0.46 0.43 0.48 0.38 0.34 0.35 0.37 0.37 0.37 0.44 0.55 0.59 0.59 0.61 0.60 0.55 0.56 0.58 0.66 0.76 0.80 0.80 0.83 0.86 0.89 0.94 0.89 0.84 0.82
0.03 0.03 0.07 0.14 0.18 0.24 0.32 0.45 0.50 0.58 0.55 0.48 0.62 1.02 1.38 1.39 1.30 1.19 1.05 0.79 0.58 0.50 0.57 0.52 0.44 0.41 0.42 0.43 0.42 0.49 0.58 0.63 0.70 0.67 0.60 0.57 0.58 0.63 0.72 0.83 0.86 0.89 0.92 0.86 0.84 0.84 0.84 0.88 0.92
0.03 0.04 0.07 0.13 0.20 0.27 0.33 0.47 0.54 0.59 0.59 0.65 0.84 1.08 1.40 1.56 1.60 1.49 1.36 1.08 0.98 0.89 0.92 0.83 0.66 0.57 0.54 0.58 0.60 0.58 0.59 0.62 0.71 0.75 0.63 0.59 0.62 0.67 0.73 0.79 0.86 0.88 0.85 0.85 0.83 0.83 0.79 0.80 0.85
0.03 0.04 0.06 0.14 0.22 0.29 0.38 0.57 0.55 0.55 0.63 0.74 0.98 1.24 1.59 1.54 1.39 1.53 1.56 1.43 1.39 1.43 1.41 1.04 0.84 0.81 0.84 0.82 0.77 0.72 0.68 0.68 0.71 0.73 0.71 0.68 0.67 0.74 0.83 0.82 0.90 0.93 0.87 0.81 0.79 0.83 0.82 0.80 0.84
0.05 0.04 0.07 0.15 0.25 0.32 0.32 0.51 0.49 0.43 0.51 0.70 0.97 1.12 1.30 1.23 1.22 1.52 1.69 1.90 1.96 1.73 1.55 1.39 1.13 1.03 1.01 0.94 0.83 0.83 0.81 0.79 0.82 0.82 0.77 0.77 0.82 0.98 1.07 0.92 0.95 0.92 0.88 0.82 0.84 0.89 0.95 0.95 0.92
0.02 0.03 0.06 0.13 0.18 0.25 0.33 0.45 0.42 0.47 0.54 0.68 0.80 1.06 1.28 1.21 1.42 1.60 1.77 2.19 2.12 1.98 1.77 1.66 1.53 1.33 1.25 1.07 1.14 1.17 1.11 1.07 1.02 1.14 1.05 1.10 1.30 1.40 1.29 1.39 1.33 1.21 1.11 1.06 1.08 1.10 1.05 0.99 0.95
0.03 0.04 0.08 0.12 0.14 0.21 0.32 0.42 0.42 0.54 0.72 1.02 1.12 1.15 1.22 1.25 1.49 1.75 1.98 2.33 2.40 2.19 1.87 1.84 1.80 1.78 1.78 1.74 1.57 1.49 1.51 1.54 1.46 1.60 1.50 1.57 1.67 1.62 1.67 1.79 1.62 1.48 1.39 1.37 1.45 1.33 1.05 1.02 1.12
0.06 0.08 0.13 0.12 0.16 0.25 0.41 0.51 0.68 0.74 0.89 1.16 1.26 1.21 1.31 1.41 1.57 1.75 2.00 2.31 2.56 2.46 2.27 2.31 2.12 2.03 2.08 2.27 2.20 1.85 1.75 1.76 1.69 1.88 1.82 1.96 2.11 2.10 2.23 2.28 2.03 1.96 1.94 1.95 1.84 1.74 1.54 1.43 1.39
0.07 0.09 0.12 0.11 0.20 0.32 0.49 0.55 0.65 0.65 0.57 0.86 1.12 1.27 1.42 1.42 1.60 1.76 2.07 2.63 2.92 2.89 2.71 2.71 2.62 2.50 2.54 2.77 2.79 2.28 2.16 2.28 2.51 2.55 2.34 2.32 2.34 2.42 2.62 2.58 2.47 2.36 2.43 2.36 2.22 2.04 2.07 2.01 1.83
0.04 0.06 0.09 0.12 0.18 0.27 0.42 0.43 0.53 0.71 0.67 0.82 1.00 1.25 1.46 1.67 1.93 2.18 2.46 2.90 3.26 3.33 3.16 3.04 2.97 2.95 2.89 2.98 3.01 2.98 2.78 2.87 3.07 3.11 2.99 2.77 2.77 2.93 3.09 3.05 2.87 2.63 2.64 2.61 2.51 2.43 2.52 2.46 2.39
0.07 0.07 0.10 0.15 0.22 0.26 0.32 0.51 0.64 0.76 0.83 0.95 1.10 1.26 1.48 1.77 2.05 2.31 2.78 3.06 3.14 3.17 3.13 3.20 3.12 3.25 3.37 3.37 3.24 3.32 3.36 3.49 3.65 3.64 3.41 3.16 3.14 3.46 3.53 3.52 3.23 2.97 2.94 3.11 3.08 2.97 2.94 2.69 2.59
0.12 0.12 0.16 0.20 0.22 0.29 0.29 0.58 0.76 0.65 0.70 0.92 1.17 1.29 1.39 1.61 2.02 2.38 2.75 2.94 3.08 3.43 3.46 3.44 3.41 3.49 3.72 3.75 3.61 3.57 3.58 3.91 4.03 4.01 3.86 3.56 3.48 3.58 3.67 3.66 3.51 3.35 3.26 3.51 3.67 3.57 3.47 3.30 3.20
0.15 0.20 0.20 0.24 0.23 0.28 0.31 0.56 0.74 0.73 0.75 0.95 1.31 1.52 1.50 1.67 2.13 2.55 2.85 3.08 3.22 3.38 3.56 3.52 3.57 3.74 3.77 3.86 3.73 3.86 4.04 4.05 4.00 3.99 4.02 3.96 3.88 3.94 3.99 3.89 3.88 3.89 3.93 3.90 3.68 3.80 3.67 3.70 3.59
0.19 0.23 0.22 0.26 0.29 0.27 0.33 0.54 0.76 0.87 1.04 1.15 1.33 1.53 1.68 1.73 1.94 2.30 2.75 3.19 3.32 3.34 3.30 3.42 3.47 3.62 3.72 3.96 3.99 4.03 4.22 4.36 4.49 4.61 4.64 4.41 4.36 4.34 4.57 4.53 4.45 4.43 4.38 4.15 4.08 4.09 3.90 3.74 3.60
0.19 0.25 0.26 0.28 0.28 0.35 0.43 0.58 0.81 0.96 1.16 1.17 1.21 1.35 1.49 1.77 1.96 2.30 2.67 2.98 3.45 3.46 3.34 3.43 3.59 3.79 3.90 4.17 4.27 4.50 4.85 5.11 5.23 5.23 5.12 5.11 4.99 5.09 5.16 4.96 4.76 4.63 4.61 4.51 4.46 4.28 4.07 3.81 3.70
0.20 0.32 0.35 0.32 0.29 0.38 0.54 0.69 0.88 1.03 1.12 1.10 1.21 1.38 1.50 1.93 2.30 2.47 2.68 3.11 3.55 3.69 3.68 3.71 3.91 4.23 4.44 4.69 5.15 5.43 5.70 5.97 6.15 6.14 5.69 5.48 5.35 5.25 5.19 5.24 5.15 4.98 4.81 4.63 4.44 4.34 4.15 3.81 3.73
0.15 0.23 0.28 0.30 0.30 0.41 0.61 0.90 1.05 1.15 1.28 1.45 1.65 1.81 1.92 2.15 2.52 2.58 2.66 3.04 3.36 3.54 3.64 3.77 4.04 4.48 5.02 5.43 5.90 6.28 6.42 6.45 6.32 6.04 5.90 5.74 5.55 5.39 5.24 5.13 4.93 4.81 4.69 4.53 4.33 4.15 4.03 3.82 3.68
0.16 0.17 0.25 0.25 0.32 0.46 0.58 1.05 1.36 1.45 1.58 1.85 2.03 2.01 2.11 2.27 2.47 2.56 2.70 2.96 3.27 3.49 3.63 3.99 4.53 5.17 5.71 6.16 6.73 7.22 7.28 7.07 6.76 6.32 5.89 5.62 5.36 5.03 4.80 4.68 4.60 4.44 4.12 3.90 3.74 3.67 3.53 3.41 3.25
0.15 0.13 0.21 0.25 0.29 0.41 0.57 0.98 1.77 1.89 1.92 2.14 2.31 2.07 2.05 2.05 2.13 2.37 2.53 2.72 3.14 3.35 3.58 3.95 4.57 5.29 5.96 6.74 7.42 7.86 7.73 7.37 6.93 6.26 5.67 5.20 4.81 4.44 4.17 4.04 3.89 3.68 3.33 2.98 2.85 2.94 3.02 3.03 2.94
0.12 0.14 0.19 0.24 0.31 0.51 0.52 0.86 1.64 2.05 2.18 2.29 2.20 2.00 1.93 1.84 1.86 2.00 2.15 2.41 2.73 3.04 3.35 3.79 4.46 5.19 5.82 6.41 6.91 7.13 7.01 6.78 6.25 5.56 4.93 4.52 4.19 3.84 3.49 3.18 2.93 2.71 2.55 2.37 2.33 2.38 2.46 2.66 2.77
0.14 0.18 0.43 0.61 0.68 0.69 0.54 0.85 1.56 1.84 1.96 1.89 1.83 1.86 1.73 1.78 1.75 1.76 1.86 2.09 2.44 2.63 3.02 3.47 3.92 4.57 4.99 5.30 5.67 5.83 5.87 5.64 5.31 4.82 4.35 3.89 3.40 3.05 2.77 2.49 2.40 2.27 2.16 2.09 2.09 2.10 2.07 2.18 2.38
0.15 0.17 0.50 0.81 0.78 0.76 0.73 1.18 1.70 1.72 1.66 1.56 1.50 1.55 1.58 1.63 1.66 1.68 1.81 2.00 2.29 2.43 2.62 2.82 3.11 3.49 3.65 3.69 3.94 4.19 4.21 4.15 4.00 3.71 3.37 3.07 2.71 2.35 2.11 1.90 1.78 1.76 1.82 1.76 1.82 1.84 1.86 1.87 1.95
0.15 0.16 0.23 0.46 0.54 0.88 1.15 1.57 2.00 1.82 1.74 1.66 1.62 1.48 1.44 1.42 1.48 1.63 1.73 1.75 1.82 1.90 2.00 2.09 2.28 2.44 2.51 2.60 2.68 2.83 2.85 2.84 2.75 2.57 2.31 2.11 1.96 1.73 1.60 1.51 1.48 1.46 1.50 1.57 1.58 1.55 1.58 1.67 1.70
0.13 0.18 0.28 0.50 0.89 1.15 1.40 1.98 2.55 2.39 2.00 1.72 1.53 1.34 1.25 1.30 1.38 1.52 1.62 1.60 1.61 1.60 1.69 1.76 1.83 1.89 1.92 1.99 1.97 1.94 1.97 1.98 1.96 1.81 1.72 1.63 1.50 1.41 1.41 1.33 1.27 1.21 1.21 1.24 1.30 1.32 1.36 1.41 1.49
0.19 0.25 0.36 0.54 0.68 1.11 1.61 2.35 2.44 2.59 2.44 1.98 1.65 1.49 1.39 1.32 1.31 1.41 1.39 1.39 1.38 1.39 1.45 1.52 1.52 1.50 1.52 1.51 1.51 1.48 1.44 1.45 1.51 1.51 1.42 1.36 1.29 1.18 1.14 1.04 0.98 0.95 0.99 1.06 1.14 1.18 1.24 1.29 1.33
0.20 0.26 0.39 0.76 0.84 0.85 1.51 2.53 2.38 2.61 2.66 2.35 2.04 1.86 1.74 1.46 1.36 1.36 1.29 1.25 1.20 1.21 1.24 1.31 1.30 1.29 1.34 1.27 1.20 1.21 1.20 1.20 1.24 1.25 1.15 1.10 1.11 1.03 0.97 0.85 0.81 0.80 0.84 0.90 0.96 0.99 1.03 1.14 1.16